• In Uzbekistan
  • List of Countries
  • For 7 days
  • Water Temperature
  • Satellite Maps
  • Weather Map
  • Weather Widgets
  • user-avatar
    Login

    Hourly Weather Yulara

    Today, 21 August, Tuesday

    Time Temperature Precipitation Wind Pressure Humidity
    00:00 +11°C° 0 mm 4 mps 721 mmHg 19%
    01:00 +11°C° 0 mm 3 mps 721 mmHg 21%
    02:00 +10°C° 0 mm 3 mps 721 mmHg 22%
    03:00 +9°C° 0 mm 3 mps 721 mmHg 23%
    04:00 +9°C° 0 mm 3 mps 720 mmHg 23%
    05:00 +8°C° 0 mm 3 mps 720 mmHg 24%
    06:00 +8°C° 0 mm 2 mps 720 mmHg 25%
    07:00 +10°C° 0 mm 3 mps 720 mmHg 22%
    08:00 +12°C° 0 mm 3 mps 720 mmHg 18%
    09:00 +16°C° 0 mm 5 mps 721 mmHg 14%
    10:00 +19°C° 0 mm 5 mps 720 mmHg 13%
    11:00 +21°C° 0 mm 5 mps 720 mmHg 12%
    12:00 +23°C° 0 mm 6 mps 719 mmHg 11%
    13:00 +25°C° 0 mm 5 mps 719 mmHg 11%
    14:00 +26°C° 0 mm 5 mps 718 mmHg 10%
    15:00 +26°C° 0 mm 4 mps 717 mmHg 10%
    16:00 +25°C° 0 mm 3 mps 717 mmHg 12%
    17:00 +22°C° 0 mm 3 mps 717 mmHg 14%
    18:00 +20°C° 0 mm 2 mps 716 mmHg 15%
    19:00 +19°C° 0 mm 2 mps 717 mmHg 16%
    20:00 +19°C° 0 mm 3 mps 717 mmHg 16%
    21:00 +18°C° 0 mm 3 mps 717 mmHg 17%
    22:00 +18°C° 0 mm 3 mps 717 mmHg 17%
    23:00 +17°C° 0 mm 3 mps 717 mmHg 18%

    Tomorrow, 22 August, Wednesday

    Time Temperature Precipitation Wind Pressure Humidity
    00:00 +17°C° 0 mm 4 mps 717 mmHg 18%
    01:00 +15°C° 0 mm 4 mps 717 mmHg 19%
    02:00 +15°C° 0 mm 4 mps 717 mmHg 20%
    03:00 +14°C° 0 mm 4 mps 716 mmHg 20%
    04:00 +14°C° 0 mm 4 mps 716 mmHg 21%
    05:00 +14°C° 0 mm 4 mps 716 mmHg 21%
    06:00 +13°C° 0 mm 4 mps 716 mmHg 21%
    07:00 +15°C° 0 mm 5 mps 716 mmHg 19%
    08:00 +17°C° 0 mm 6 mps 717 mmHg 17%
    09:00 +20°C° 0 mm 7 mps 717 mmHg 14%
    10:00 +23°C° 0 mm 7 mps 717 mmHg 13%
    11:00 +26°C° 0 mm 8 mps 716 mmHg 12%
    12:00 +28°C° 0 mm 9 mps 716 mmHg 10%
    13:00 +29°C° 0 mm 9 mps 716 mmHg 10%
    14:00 +29°C° 0 mm 9 mps 715 mmHg 10%
    15:00 +29°C° 0 mm 10 mps 714 mmHg 10%
    16:00 +28°C° 0 mm 9 mps 714 mmHg 11%
    17:00 +27°C° 0 mm 8 mps 714 mmHg 12%
    18:00 +24°C° 0 mm 7 mps 714 mmHg 13%
    19:00 +23°C° 0 mm 7 mps 715 mmHg 20%
    20:00 +21°C° 0 mm 7 mps 716 mmHg 26%
    21:00 +20°C° 0 mm 7 mps 716 mmHg 32%
    22:00 +17°C° 0 mm 8 mps 716 mmHg 39%
    23:00 +16°C° 0 mm 9 mps 717 mmHg 46%

    Day after tomorrow, 23 August, Thursday

    Time Temperature Precipitation Wind Pressure Humidity
    00:00 +13°C° 0 mm 10 mps 717 mmHg 52%
    01:00 +12°C° 0 mm 9 mps 717 mmHg 47%
    02:00 +11°C° 0 mm 9 mps 717 mmHg 41%
    03:00 +10°C° 0 mm 8 mps 718 mmHg 35%
    04:00 +9°C° 0 mm 7 mps 718 mmHg 38%
    05:00 +8°C° 0 mm 6 mps 718 mmHg 41%
    06:00 +7°C° 0 mm 6 mps 719 mmHg 45%
    07:00 +8°C° 0 mm 6 mps 719 mmHg 43%
    08:00 +9°C° 0 mm 7 mps 720 mmHg 41%
    09:00 +10°C° 0 mm 8 mps 720 mmHg 39%
    10:00 +12°C° 0 mm 7 mps 720 mmHg 35%
    11:00 +14°C° 0 mm 7 mps 720 mmHg 31%
    12:00 +16°C° 0 mm 7 mps 719 mmHg 27%
    13:00 +17°C° 0 mm 7 mps 719 mmHg 25%
    14:00 +18°C° 0 mm 7 mps 718 mmHg 23%
    15:00 +20°C° 0 mm 7 mps 718 mmHg 21%
    16:00 +18°C° 0 mm 7 mps 718 mmHg 22%
    17:00 +16°C° 0 mm 6 mps 718 mmHg 24%
    18:00 +15°C° 0 mm 6 mps 718 mmHg 26%
    19:00 +14°C° 0 mm 6 mps 719 mmHg 30%
    20:00 +13°C° 0 mm 5 mps 720 mmHg 34%
    21:00 +12°C° 0 mm 5 mps 720 mmHg 38%
    22:00 +10°C° 0 mm 5 mps 720 mmHg 44%
    23:00 +10°C° 0 mm 5 mps 720 mmHg 50%

    24 August, Friday

    Time Temperature Precipitation Wind Pressure Humidity
    00:00 +9°C° 0 mm 5 mps 720 mmHg 56%
    01:00 +9°C° 0 mm 5 mps 720 mmHg 60%
    02:00 +8°C° 0 mm 5 mps 720 mmHg 64%
    03:00 +8°C° 0 mm 5 mps 719 mmHg 68%
    04:00 +7°C° 0 mm 5 mps 719 mmHg 73%
    05:00 +7°C° 0 mm 5 mps 719 mmHg 77%
    06:00 +7°C° 0 mm 5 mps 720 mmHg 81%
    07:00 +8°C° 0 mm 6 mps 720 mmHg 73%
    08:00 +10°C° 0 mm 7 mps 720 mmHg 66%
    09:00 +11°C° 0 mm 7 mps 721 mmHg 58%
    10:00 +14°C° 0 mm 7 mps 721 mmHg 51%
    11:00 +16°C° 0 mm 7 mps 720 mmHg 45%
    12:00 +17°C° 0 mm 6 mps 720 mmHg 38%
    13:00 +18°C° 0 mm 7 mps 719 mmHg 36%
    14:00 +18°C° 0 mm 7 mps 719 mmHg 34%
    15:00 +20°C° 0 mm 7 mps 718 mmHg 32%
    16:00 +18°C° 0 mm 7 mps 718 mmHg 37%
    17:00 +16°C° 0 mm 6 mps 718 mmHg 42%
    18:00 +15°C° 0 mm 6 mps 719 mmHg 47%
    19:00 +14°C° 0 mm 6 mps 719 mmHg 52%
    20:00 +13°C° 0 mm 5 mps 720 mmHg 56%
    21:00 +12°C° 0 mm 5 mps 721 mmHg 61%
    22:00 +11°C° 0 mm 4 mps 720 mmHg 65%
    23:00 +11°C° 0 mm 4 mps 720 mmHg 68%

    25 August, Saturday

    Time Temperature Precipitation Wind Pressure Humidity
    00:00 +10°C° 0 mm 4 mps 720 mmHg 72%
    01:00 +10°C° 0 mm 4 mps 720 mmHg 76%
    02:00 +8°C° 0 mm 4 mps 719 mmHg 79%
    03:00 +8°C° 0 mm 4 mps 719 mmHg 83%
    04:00 +7°C° 0 mm 4 mps 719 mmHg 85%
    05:00 +8°C° 0 mm 3 mps 719 mmHg 86%
    06:00 +8°C° 0 mm 3 mps 719 mmHg 88%
    07:00 +8°C° 0 mm 4 mps 720 mmHg 77%
    08:00 +11°C° 0 mm 4 mps 720 mmHg 66%
    09:00 +13°C° 0 mm 5 mps 721 mmHg 55%
    10:00 +15°C° 0 mm 5 mps 720 mmHg 47%
    11:00 +17°C° 0 mm 4 mps 720 mmHg 39%
    12:00 +19°C° 0 mm 4 mps 720 mmHg 32%
    13:00 +20°C° 0 mm 4 mps 719 mmHg 29%
    14:00 +21°C° 0 mm 4 mps 718 mmHg 25%
    15:00 +22°C° 0 mm 3 mps 718 mmHg 22%
    16:00 +21°C° 0 mm 3 mps 718 mmHg 24%
    17:00 +20°C° 0 mm 3 mps 718 mmHg 25%
    18:00 +18°C° 0 mm 3 mps 718 mmHg 26%
    19:00 +18°C° 0 mm 3 mps 719 mmHg 27%
    20:00 +17°C° 0 mm 3 mps 719 mmHg 29%
    21:00 +16°C° 0 mm 3 mps 720 mmHg 30%
    22:00 +14°C° 0 mm 3 mps 720 mmHg 32%
    23:00 +13°C° 0 mm 3 mps 719 mmHg 33%

    26 August, Sunday

    Time Temperature Precipitation Wind Pressure Humidity
    00:00 +13°C° 0 mm 3 mps 719 mmHg 34%
    01:00 +12°C° 0 mm 3 mps 719 mmHg 36%
    02:00 +12°C° 0 mm 3 mps 719 mmHg 37%
    03:00 +11°C° 0 mm 3 mps 719 mmHg 38%
    04:00 +11°C° 0 mm 3 mps 719 mmHg 39%
    05:00 +10°C° 0 mm 3 mps 719 mmHg 40%
    06:00 +10°C° 0 mm 3 mps 719 mmHg 40%
    07:00 +12°C° 0 mm 4 mps 720 mmHg 36%
    08:00 +14°C° 0 mm 4 mps 720 mmHg 32%
    09:00 +16°C° 0 mm 5 mps 720 mmHg 28%
    10:00 +19°C° 0 mm 5 mps 720 mmHg 25%
    11:00 +21°C° 0 mm 4 mps 720 mmHg 23%
    12:00 +22°C° 0 mm 4 mps 719 mmHg 20%
    13:00 +24°C° 0 mm 3 mps 719 mmHg 19%
    14:00 +25°C° 0 mm 3 mps 718 mmHg 17%
    15:00 +26°C° 0 mm 3 mps 717 mmHg 15%
    16:00 +24°C° 0 mm 2 mps 717 mmHg 18%
    17:00 +22°C° 0 mm 1 mps 717 mmHg 21%
    18:00 +21°C° 0 mm 1 mps 717 mmHg 24%
    19:00 +20°C° 0 mm 1 mps 717 mmHg 24%
    20:00 +19°C° 0 mm 1 mps 718 mmHg 24%
    21:00 +17°C° 0 mm 2 mps 718 mmHg 24%
    22:00 +17°C° 0 mm 2 mps 718 mmHg 24%
    23:00 +17°C° 0 mm 3 mps 718 mmHg 25%
    Show more